| time (UTC) | temp C | wind direction | speed KPH | gust KPH | rain 1hr cm | rain 24hr cm | rain mn cm | humidity % | barometer mb |
| 20260507004023 | 18 | 318 | 17.7 | 33.8 | 0.00 | 0.00 | 0.00 | 76 | 1017.7 |
| 20260507003533 | 18 | 345 | 17.7 | 30.6 | 0.00 | 0.00 | 0.00 | 76 | 1017.7 |
| 20260507003118 | 18 | 332 | 14.5 | 30.6 | 0.00 | 0.00 | 0.00 | 75 | 1017.9 |
| 20260507002526 | 18 | 325 | 17.7 | 30.6 | 0.00 | 0.00 | 0.00 | 75 | 1017.8 |
| 20260507002019 | 18 | 328 | 19.3 | 30.6 | 0.00 | 0.00 | 0.00 | 75 | 1017.7 |
| 20260507001649 | 18 | 308 | 12.9 | 30.6 | 0.00 | 0.00 | 0.00 | 76 | 1017.8 |
| 20260507001025 | 18 | 311 | 12.9 | 29.0 | 0.00 | 0.00 | 0.00 | 76 | 1017.7 |
| 20260507000533 | 18 | 320 | 17.7 | 29.0 | 0.00 | 0.00 | 0.00 | 76 | 1017.7 |
| 20260507000201 | 18 | 261 | 14.5 | 30.6 | 0.00 | 0.00 | 0.00 | 76 | 1017.8 |
| 20260506235525 | 18 | 305 | 14.5 | 30.6 | 0.00 | 0.00 | 0.00 | 75 | 1017.8 |
| 20260506235029 | 18 | 345 | 14.5 | 32.2 | 0.00 | 0.00 | 0.00 | 75 | 1017.7 |
| 20260506234701 | 18 | 334 | 19.3 | 32.2 | 0.00 | 0.00 | 0.00 | 75 | 1017.8 |
| 20260506234025 | 18 | 288 | 17.7 | 30.6 | 0.00 | 0.00 | 0.00 | 75 | 1017.6 |
| 20260506233523 | 19 | 286 | 14.5 | 30.6 | 0.00 | 0.00 | 0.00 | 76 | 1017.6 |
| 20260506233154 | 19 | 313 | 16.1 | 30.6 | 0.00 | 0.00 | 0.00 | 75 | 1017.6 |
| 20260506232539 | 19 | 323 | 14.5 | 32.2 | 0.00 | 0.00 | 0.00 | 75 | 1017.6 |
| 20260506232038 | 19 | 328 | 16.1 | 32.2 | 0.00 | 0.00 | 0.00 | 73 | 1017.7 |
| 20260506231649 | 20 | 332 | 14.5 | 30.6 | 0.00 | 0.00 | 0.00 | 74 | 1017.7 |
| 20260506231042 | 20 | 299 | 17.7 | 30.6 | 0.00 | 0.00 | 0.00 | 72 | 1017.9 |
| 20260506230528 | 20 | 290 | 9.7 | 30.6 | 0.00 | 0.00 | 0.00 | 74 | 1017.8 |
| 20260506230121 | 20 | 294 | 14.5 | 30.6 | 0.00 | 0.00 | 0.00 | 73 | 1018.0 |
| 20260506225527 | 20 | 316 | 14.5 | 25.7 | 0.00 | 0.00 | 0.00 | 73 | 1018.1 |
| 20260506225042 | 20 | 319 | 14.5 | 29.0 | 0.00 | 0.00 | 0.00 | 74 | 1018.1 |
| 20260506224638 | 21 | 334 | 16.1 | 29.0 | 0.00 | 0.00 | 0.00 | 72 | 1018.1 |
| 20260506224034 | 21 | 304 | 14.5 | 25.7 | 0.00 | 0.00 | 0.00 | 72 | 1018.3 |
| 20260506223520 | 21 | 316 | 14.5 | 25.7 | 0.00 | 0.00 | 0.00 | 72 | 1018.2 |
| 20260506223110 | 21 | 311 | 11.3 | 22.5 | 0.00 | 0.00 | 0.00 | 72 | 1018.2 |
| 20260506222545 | 21 | 317 | 12.9 | 22.5 | 0.00 | 0.00 | 0.00 | 71 | 1018.3 |
| 20260506222029 | 22 | 279 | 9.7 | 20.9 | 0.00 | 0.00 | 0.00 | 71 | 1018.2 |
| 20260506221650 | 21 | 280 | 12.9 | 20.9 | 0.00 | 0.00 | 0.00 | 70 | 1018.3 |
| 20260506221041 | 22 | 278 | 12.9 | 17.7 | 0.00 | 0.00 | 0.00 | 70 | 1018.5 |
| 20260506220539 | 22 | 334 | 11.3 | 17.7 | 0.00 | 0.00 | 0.00 | 71 | 1018.4 |
| 20260506220130 | 22 | 305 | 6.4 | 16.1 | 0.00 | 0.00 | 0.00 | 70 | 1018.4 |
| 20260506215525 | 22 | 293 | 6.4 | 14.5 | 0.00 | 0.00 | 0.00 | 68 | 1018.5 |
| 20260506215023 | 21 | 265 | 1.6 | 14.5 | 0.00 | 0.00 | 0.00 | 73 | 1018.6 |
| 20260506214640 | 21 | 283 | 6.4 | 14.5 | 0.00 | 0.00 | 0.00 | 71 | 1018.7 |
| 20260506214037 | 21 | 325 | 8.0 | 14.5 | 0.00 | 0.00 | 0.00 | 70 | 1018.8 |
| 20260506213536 | 21 | 240 | 4.8 | 17.7 | 0.00 | 0.00 | 0.00 | 73 | 1018.9 |
| 20260506213136 | 21 | 309 | 4.8 | 9.7 | 0.00 | 0.00 | 0.00 | 71 | 1018.9 |
| 20260506212520 | 21 | 254 | 3.2 | 6.4 | 0.00 | 0.00 | 0.00 | 71 | 1018.9 |
| 20260506212042 | 21 | 253 | 3.2 | 12.9 | 0.00 | 0.00 | 0.00 | 73 | 1019.1 |
| 20260506211633 | 21 | 264 | 6.4 | 12.9 | 0.00 | 0.00 | 0.00 | 71 | 1019.1 |
| 20260506211035 | 21 | 247 | 3.2 | 12.9 | 0.00 | 0.00 | 0.00 | 72 | 1019.1 |
| 20260506210526 | 21 | 231 | 4.8 | 12.9 | 0.00 | 0.00 | 0.00 | 71 | 1019.2 |
| 20260506210150 | 21 | 314 | 3.2 | 11.3 | 0.00 | 0.00 | 0.00 | 69 | 1019.2 |
| 20260506205532 | 21 | 228 | 3.2 | 11.3 | 0.00 | 0.00 | 0.00 | 69 | 1019.0 |
| 20260506205033 | 21 | 170 | 1.6 | 6.4 | 0.00 | 0.00 | 0.00 | 68 | 1019.2 |
| 20260506204628 | 21 | 165 | 1.6 | 8.0 | 0.00 | 0.00 | 0.00 | 70 | 1019.2 |
| 20260506204021 | 20 | 242 | 3.2 | 9.7 | 0.00 | 0.00 | 0.00 | 68 | 1019.2 |
| 20260506203523 | 21 | 209 | 3.2 | 9.7 | 0.00 | 0.00 | 0.00 | 70 | 1019.4 |
| 20260506203128 | 21 | 252 | 3.2 | 6.4 | 0.00 | 0.00 | 0.00 | 70 | 1019.4 |
| 20260506202520 | 21 | 262 | 1.6 | 8.0 | 0.00 | 0.00 | 0.00 | 70 | 1019.5 |
| 20260506202029 | 21 | 230 | 1.6 | 8.0 | 0.00 | 0.00 | 0.00 | 69 | 1019.5 |
| 20260506201621 | 21 | 294 | 0.0 | 3.2 | 0.00 | 0.00 | 0.00 | 69 | 1019.6 |
| 20260506201034 | 21 | 345 | 0.0 | 3.2 | 0.00 | 0.00 | 0.00 | 72 | 1019.8 |
| 20260506200532 | 20 | 67 | 0.0 | 3.2 | 0.00 | 0.00 | 0.00 | 68 | 1019.6 |
| 20260506195533 | 20 | 207 | 1.6 | 9.7 | 0.00 | 0.00 | 0.00 | 67 | 1019.7 |
| 20260506195027 | 20 | 50 | 0.0 | 9.7 | 0.00 | 0.00 | 0.00 | 70 | 1019.7 |
| 20260506194628 | 20 | 66 | 0.0 | 1.6 | 0.00 | 0.00 | 0.00 | 67 | 1019.8 |
| 20260506194022 | 20 | 66 | 0.0 | 1.6 | 0.00 | 0.00 | 0.00 | 68 | 1019.9 |
| 20260506193534 | 20 | 14 | 0.0 | 4.8 | 0.00 | 0.00 | 0.00 | 70 | 1019.9 |
| 20260506193115 | 20 | 212 | 0.0 | 4.8 | 0.00 | 0.00 | 0.00 | 69 | 1019.8 |
| 20260506192543 | 20 | 151 | 0.0 | 8.0 | 0.00 | 0.00 | 0.00 | 71 | 1020.0 |
| 20260506192036 | 20 | 189 | 0.0 | 8.0 | 0.00 | 0.00 | 0.00 | 71 | 1020.0 |
| 20260506191613 | 19 | 182 | 0.0 | 6.4 | 0.00 | 0.00 | 0.00 | 71 | 1020.0 |
| 20260506191025 | 19 | 191 | 0.0 | 8.0 | 0.00 | 0.00 | 0.00 | 71 | 1020.2 |
| 20260506190529 | 19 | 156 | 1.6 | 8.0 | 0.00 | 0.00 | 0.00 | 73 | 1020.3 |
| 20260506190136 | 19 | 208 | 1.6 | 6.4 | 0.00 | 0.00 | 0.00 | 73 | 1020.4 |
| 20260506185538 | 19 | 188 | 1.6 | 6.4 | 0.00 | 0.00 | 0.00 | 73 | 1020.2 |
| 20260506185018 | 19 | 234 | 0.0 | 8.0 | 0.00 | 0.00 | 0.00 | 71 | 1020.2 |
| 20260506184612 | 19 | 215 | 1.6 | 8.0 | 0.00 | 0.00 | 0.00 | 71 | 1020.3 |
| 20260506184019 | 20 | 222 | 1.6 | 8.0 | 0.00 | 0.00 | 0.00 | 75 | 1020.1 |
| 20260506183538 | 20 | 203 | 1.6 | 8.0 | 0.00 | 0.00 | 0.00 | 75 | 1020.3 |
| 20260506183129 | 19 | 281 | 4.8 | 8.0 | 0.00 | 0.00 | 0.00 | 73 | 1020.4 |
| 20260506182528 | 19 | 211 | 1.6 | 12.9 | 0.00 | 0.00 | 0.00 | 75 | 1020.3 |
| 20260506182015 | 19 | 277 | 3.2 | 12.9 | 0.00 | 0.00 | 0.00 | 76 | 1020.2 |
| 20260506181554 | 18 | 246 | 0.0 | 9.7 | 0.00 | 0.00 | 0.00 | 73 | 1020.3 |
| 20260506181033 | 18 | 246 | 1.6 | 8.0 | 0.00 | 0.00 | 0.00 | 75 | 1020.2 |
| 20260506180522 | 19 | 258 | 4.8 | 9.7 | 0.00 | 0.00 | 0.00 | 75 | 1020.1 |
| 20260506180123 | 18 | 290 | 3.2 | 8.0 | 0.00 | 0.00 | 0.00 | 75 | 1020.2 |
| 20260506175532 | 18 | 195 | 1.6 | 8.0 | 0.00 | 0.00 | 0.00 | 76 | 1020.2 |
| 20260506175036 | 18 | 184 | 4.8 | 11.3 | 0.00 | 0.00 | 0.00 | 77 | 1020.2 |
| 20260506174623 | 18 | 175 | 1.6 | 11.3 | 0.00 | 0.00 | 0.00 | 75 | 1020.3 |
| 20260506174022 | 18 | 203 | 3.2 | 9.7 | 0.00 | 0.00 | 0.00 | 75 | 1020.4 |
| 20260506173518 | 18 | 258 | 0.0 | 3.2 | 0.00 | 0.00 | 0.00 | 76 | 1020.4 |
| 20260506173129 | 18 | 276 | 0.0 | 3.2 | 0.00 | 0.00 | 0.00 | 77 | 1020.3 |
| 20260506172546 | 18 | 9 | 0.0 | 6.4 | 0.00 | 0.00 | 0.00 | 75 | 1020.2 |
| 20260506172044 | 17 | 342 | 1.6 | 6.4 | 0.00 | 0.00 | 0.00 | 76 | 1020.1 |
| 20260506171610 | 17 | 263 | 0.0 | 6.4 | 0.00 | 0.00 | 0.00 | 77 | 1020.1 |
| 20260506171021 | 17 | 336 | 1.6 | 6.4 | 0.00 | 0.00 | 0.00 | 77 | 1020.4 |
| 20260506170522 | 17 | 11 | 3.2 | 6.4 | 0.00 | 0.00 | 0.00 | 77 | 1020.4 |
| 20260506170114 | 17 | 207 | 3.2 | 6.4 | 0.00 | 0.00 | 0.00 | 78 | 1020.3 |
| 20260506165521 | 17 | 271 | 1.6 | 6.4 | 0.00 | 0.00 | 0.00 | 78 | 1020.2 |
| 20260506165024 | 17 | 272 | 3.2 | 8.0 | 0.00 | 0.00 | 0.00 | 78 | 1020.2 |
| 20260506164627 | 17 | 283 | 3.2 | 8.0 | 0.00 | 0.00 | 0.00 | 79 | 1020.3 |
| 20260506164036 | 16 | 287 | 0.0 | 8.0 | 0.00 | 0.00 | 0.00 | 79 | 1020.3 |
| 20260506163542 | 16 | 286 | 1.6 | 6.4 | 0.00 | 0.00 | 0.00 | 79 | 1020.1 |
| 20260506163130 | 17 | 257 | 1.6 | 4.8 | 0.00 | 0.00 | 0.00 | 82 | 1020.2 |
| 20260506162526 | 16 | 224 | 3.2 | 4.8 | 0.00 | 0.00 | 0.00 | 80 | 1020.2 |
| 20260506162041 | 16 | 293 | 0.0 | 1.6 | 0.00 | 0.00 | 0.00 | 80 | 1020.3 |
| 20260506161631 | 16 | 293 | 0.0 | 4.8 | 0.00 | 0.00 | 0.00 | 81 | 1020.3 |
| 20260506161030 | 16 | 238 | 0.0 | 4.8 | 0.00 | 0.00 | 0.00 | 80 | 1020.3 |
| 20260506160525 | 16 | 244 | 0.0 | 4.8 | 0.00 | 0.00 | 0.00 | 82 | 1020.2 |
| 20260506160100 | 15 | 303 | 0.0 | 4.8 | 0.00 | 0.00 | 0.00 | 81 | 1020.1 |
| 20260506155542 | 15 | 318 | 0.0 | 1.6 | 0.00 | 0.00 | 0.00 | 82 | 1020.2 |
| 20260506155032 | 15 | 318 | 0.0 | 4.8 | 0.00 | 0.00 | 0.00 | 82 | 1020.4 |
| 20260506154645 | 15 | 331 | 1.6 | 4.8 | 0.00 | 0.00 | 0.00 | 82 | 1020.3 |
| 20260506154019 | 15 | 350 | 0.0 | 4.8 | 0.00 | 0.00 | 0.00 | 83 | 1020.3 |
| 20260506153536 | 15 | 75 | 0.0 | 4.8 | 0.00 | 0.00 | 0.00 | 83 | 1020.2 |
| 20260506153128 | 15 | 355 | 0.0 | 4.8 | 0.00 | 0.00 | 0.00 | 84 | 1020.2 |
| 20260506152518 | 15 | 328 | 0.0 | 3.2 | 0.00 | 0.00 | 0.00 | 85 | 1020.3 |
| 20260506152026 | 15 | 61 | 0.0 | 4.8 | 0.00 | 0.00 | 0.00 | 86 | 1020.2 |
| 20260506151622 | 14 | 322 | 0.0 | 4.8 | 0.00 | 0.00 | 0.00 | 85 | 1020.1 |
| 20260506151017 | 14 | 355 | 0.0 | 4.8 | 0.00 | 0.00 | 0.00 | 85 | 1020.4 |
| 20260506150518 | 14 | 7 | 0.0 | 8.0 | 0.00 | 0.00 | 0.00 | 86 | 1020.6 |
| 20260506150120 | 14 | 340 | 0.0 | 8.0 | 0.00 | 0.00 | 0.00 | 87 | 1020.3 |
| 20260506145542 | 13 | 308 | 1.6 | 4.8 | 0.00 | 0.00 | 0.00 | 88 | 1020.5 |
| 20260506145035 | 13 | 303 | 1.6 | 6.4 | 0.00 | 0.00 | 0.00 | 89 | 1020.4 |
| 20260506144634 | 13 | 307 | 1.6 | 4.8 | 0.00 | 0.00 | 0.00 | 90 | 1020.2 |
| 20260506144026 | 13 | 307 | 0.0 | 6.4 | 0.00 | 0.00 | 0.00 | 90 | 1020.3 |
| 20260506143538 | 13 | 307 | 3.2 | 6.4 | 0.00 | 0.00 | 0.00 | 90 | 1020.3 |
| 20260506143110 | 13 | 315 | 3.2 | 6.4 | 0.00 | 0.00 | 0.00 | 91 | 1020.1 |
| 20260506142525 | 12 | 310 | 1.6 | 4.8 | 0.00 | 0.00 | 0.00 | 91 | 1020.2 |
| 20260506142034 | 12 | 310 | 0.0 | 4.8 | 0.00 | 0.00 | 0.00 | 91 | 1020.2 |
| 20260506141614 | 12 | 322 | 1.6 | 6.4 | 0.00 | 0.00 | 0.00 | 91 | 1020.1 |
| 20260506141034 | 12 | 322 | 0.0 | 6.4 | 0.00 | 0.00 | 0.00 | 91 | 1019.9 |
| 20260506140537 | 12 | 310 | 3.2 | 8.0 | 0.00 | 0.00 | 0.00 | 91 | 1020.0 |
| 20260506140133 | 12 | 314 | 3.2 | 8.0 | 0.00 | 0.00 | 0.00 | 91 | 1019.9 |
| 20260506135519 | 12 | 311 | 1.6 | 8.0 | 0.00 | 0.00 | 0.00 | 91 | 1019.9 |
| 20260506135040 | 12 | 295 | 3.2 | 8.0 | 0.00 | 0.00 | 0.00 | 91 | 1019.9 |
| 20260506134632 | 12 | 335 | 3.2 | 6.4 | 0.00 | 0.00 | 0.00 | 91 | 1019.9 |
| 20260506134019 | 12 | 309 | 3.2 | 12.9 | 0.00 | 0.00 | 0.00 | 91 | 1019.7 |
| 20260506133539 | 12 | 304 | 6.4 | 12.9 | 0.00 | 0.00 | 0.00 | 91 | 1019.9 |
| 20260506133105 | 12 | 336 | 4.8 | 9.7 | 0.00 | 0.00 | 0.00 | 91 | 1019.8 |
| 20260506132542 | 12 | 340 | 3.2 | 8.0 | 0.00 | 0.00 | 0.00 | 90 | 1019.6 |
| 20260506132027 | 12 | 317 | 4.8 | 8.0 | 0.00 | 0.00 | 0.00 | 90 | 1019.6 |
| 20260506131604 | 12 | 324 | 3.2 | 8.0 | 0.00 | 0.00 | 0.00 | 90 | 1019.5 |
| 20260506131023 | 12 | 307 | 1.6 | 4.8 | 0.00 | 0.00 | 0.00 | 90 | 1019.7 |
| 20260506130539 | 12 | 307 | 3.2 | 4.8 | 0.00 | 0.00 | 0.00 | 90 | 1019.6 |
| 20260506130134 | 12 | 321 | 1.6 | 6.4 | 0.00 | 0.00 | 0.00 | 90 | 1019.6 |
| 20260506125521 | 12 | 321 | 1.6 | 4.8 | 0.00 | 0.00 | 0.00 | 90 | 1019.6 |
| 20260506125026 | 12 | 296 | 3.2 | 4.8 | 0.00 | 0.00 | 0.00 | 90 | 1019.4 |
| 20260506124629 | 12 | 355 | 1.6 | 4.8 | 0.00 | 0.00 | 0.00 | 90 | 1019.5 |
| 20260506124032 | 12 | 318 | 1.6 | 4.8 | 0.00 | 0.00 | 0.00 | 90 | 1019.5 |
| 20260506123521 | 12 | 318 | 1.6 | 4.8 | 0.00 | 0.00 | 0.00 | 90 | 1019.6 |
| 20260506123059 | 12 | 318 | 1.6 | 4.8 | 0.00 | 0.00 | 0.00 | 90 | 1019.5 |
| 20260506122537 | 12 | 318 | 0.0 | 4.8 | 0.00 | 0.00 | 0.00 | 90 | 1019.4 |
| 20260506122044 | 12 | 318 | 1.6 | 4.8 | 0.00 | 0.00 | 0.00 | 90 | 1019.5 |
| 20260506121639 | 12 | 318 | 1.6 | 6.4 | 0.00 | 0.00 | 0.00 | 90 | 1019.4 |
| 20260506121025 | 12 | 315 | 1.6 | 6.4 | 0.00 | 0.00 | 0.00 | 90 | 1019.4 |
| 20260506120529 | 12 | 304 | 1.6 | 6.4 | 0.00 | 0.00 | 0.00 | 90 | 1019.3 |
| 20260506120146 | 12 | 299 | 3.2 | 6.4 | 0.00 | 0.00 | 0.00 | 90 | 1019.4 |
| 20260506115515 | 12 | 318 | 3.2 | 8.0 | 0.00 | 0.00 | 0.00 | 90 | 1019.3 |
| 20260506115015 | 12 | 334 | 1.6 | 8.0 | 0.00 | 0.00 | 0.00 | 90 | 1019.2 |
| 20260506114609 | 12 | 325 | 1.6 | 6.4 | 0.00 | 0.00 | 0.00 | 90 | 1019.4 |
| 20260506114043 | 12 | 297 | 0.0 | 6.4 | 0.00 | 0.00 | 0.00 | 90 | 1019.3 |
| 20260506113534 | 12 | 317 | 3.2 | 6.4 | 0.00 | 0.00 | 0.00 | 90 | 1019.3 |
| 20260506113111 | 12 | 292 | 1.6 | 6.4 | 0.00 | 0.00 | 0.00 | 90 | 1019.2 |
| 20260506112542 | 12 | 319 | 3.2 | 6.4 | 0.00 | 0.00 | 0.00 | 90 | 1019.2 |
| 20260506112035 | 12 | 307 | 3.2 | 9.7 | 0.00 | 0.00 | 0.00 | 90 | 1019.0 |
| 20260506111634 | 12 | 319 | 6.4 | 12.9 | 0.00 | 0.00 | 0.00 | 90 | 1018.9 |
| 20260506111019 | 12 | 321 | 6.4 | 12.9 | 0.00 | 0.00 | 0.00 | 90 | 1019.0 |
| 20260506110523 | 12 | 305 | 4.8 | 9.7 | 0.00 | 0.00 | 0.00 | 90 | 1018.9 |
| 20260506110140 | 12 | 304 | 4.8 | 9.7 | 0.00 | 0.00 | 0.00 | 90 | 1019.0 |
| 20260506105537 | 12 | 324 | 4.8 | 9.7 | 0.00 | 0.00 | 0.00 | 90 | 1018.9 |
| 20260506105043 | 12 | 324 | 4.8 | 9.7 | 0.00 | 0.00 | 0.00 | 90 | 1018.8 |
| 20260506104644 | 12 | 328 | 3.2 | 9.7 | 0.00 | 0.00 | 0.00 | 90 | 1018.9 |
| 20260506104026 | 12 | 326 | 3.2 | 12.9 | 0.00 | 0.00 | 0.00 | 90 | 1019.0 |
| 20260506103522 | 12 | 263 | 6.4 | 12.9 | 0.00 | 0.00 | 0.00 | 90 | 1018.8 |
| 20260506103133 | 12 | 338 | 4.8 | 12.9 | 0.00 | 0.00 | 0.00 | 89 | 1018.8 |
| 20260506102542 | 12 | 326 | 4.8 | 12.9 | 0.00 | 0.00 | 0.00 | 89 | 1018.8 |
| 20260506102040 | 12 | 310 | 6.4 | 14.5 | 0.00 | 0.00 | 0.00 | 89 | 1018.8 |
| 20260506101642 | 12 | 309 | 6.4 | 9.7 | 0.00 | 0.00 | 0.00 | 89 | 1018.7 |
| 20260506101037 | 12 | 327 | 4.8 | 9.7 | 0.00 | 0.00 | 0.00 | 89 | 1018.7 |
| 20260506100539 | 12 | 322 | 4.8 | 9.7 | 0.00 | 0.00 | 0.00 | 89 | 1018.7 |
| 20260506100140 | 12 | 308 | 3.2 | 9.7 | 0.00 | 0.00 | 0.00 | 89 | 1018.7 |
| 20260506095521 | 12 | 340 | 4.8 | 9.7 | 0.00 | 0.10 | 0.00 | 89 | 1018.8 |
| 20260506095023 | 12 | 313 | 3.2 | 9.7 | 0.00 | 0.10 | 0.00 | 89 | 1018.6 |
| 20260506094634 | 12 | 326 | 3.2 | 9.7 | 0.00 | 0.10 | 0.00 | 89 | 1018.8 |
| 20260506094029 | 12 | 314 | 3.2 | 9.7 | 0.00 | 0.10 | 0.00 | 89 | 1018.8 |
| 20260506093525 | 12 | 315 | 4.8 | 9.7 | 0.00 | 0.10 | 0.00 | 89 | 1018.8 |
| 20260506093141 | 12 | 303 | 4.8 | 9.7 | 0.00 | 0.10 | 0.00 | 89 | 1018.8 |
| 20260506092524 | 12 | 334 | 4.8 | 9.7 | 0.00 | 0.10 | 0.00 | 89 | 1018.9 |
| 20260506092042 | 12 | 302 | 4.8 | 9.7 | 0.00 | 0.10 | 0.00 | 89 | 1018.9 |
| 20260506091643 | 12 | 303 | 4.8 | 12.9 | 0.00 | 0.10 | 0.00 | 89 | 1018.8 |
| 20260506091036 | 12 | 315 | 4.8 | 12.9 | 0.00 | 0.10 | 0.00 | 88 | 1018.9 |
| 20260506090543 | 12 | 334 | 6.4 | 12.9 | 0.00 | 0.10 | 0.00 | 88 | 1018.9 |
| 20260506090148 | 12 | 321 | 8.0 | 14.5 | 0.00 | 0.10 | 0.00 | 88 | 1018.9 |
| 20260506085535 | 12 | 305 | 8.0 | 14.5 | 0.00 | 0.23 | 0.00 | 88 | 1018.8 |
| 20260506085031 | 12 | 325 | 6.4 | 14.5 | 0.00 | 0.23 | 0.00 | 88 | 1018.8 |
| 20260506084716 | 12 | 289 | 6.4 | 9.7 | 0.00 | 0.23 | 0.00 | 88 | 1018.8 |
| 20260506084031 | 12 | 309 | 6.4 | 11.3 | 0.00 | 0.23 | 0.00 | 89 | 1018.9 |
| 20260506083521 | 12 | 332 | 6.4 | 12.9 | 0.00 | 0.23 | 0.00 | 89 | 1018.9 |
| 20260506083118 | 12 | 299 | 6.4 | 12.9 | 0.00 | 0.23 | 0.00 | 89 | 1018.8 |
| 20260506082541 | 12 | 332 | 6.4 | 12.9 | 0.00 | 0.23 | 0.00 | 89 | 1018.8 |
| 20260506082018 | 12 | 340 | 6.4 | 14.5 | 0.00 | 0.23 | 0.00 | 89 | 1019.0 |
| 20260506081638 | 12 | 304 | 8.0 | 14.5 | 0.00 | 0.23 | 0.00 | 89 | 1018.8 |
| 20260506081143 | 12 | 312 | 8.0 | 14.5 | 0.00 | 0.23 | 0.00 | 89 | 1018.8 |
| 20260506080524 | 12 | 317 | 6.4 | 12.9 | 0.00 | 0.23 | 0.00 | 89 | 1018.9 |
| 20260506080118 | 12 | 329 | 6.4 | 12.9 | 0.00 | 0.23 | 0.00 | 89 | 1018.8 |
| 20260506073529 | 12 | 334 | 6.4 | 12.9 | 0.00 | 0.36 | 0.00 | 89 | 1018.6 |
| 20260506073101 | 12 | 299 | 8.0 | 14.5 | 0.00 | 0.36 | 0.00 | 89 | 1018.6 |
| 20260506072518 | 12 | 317 | 6.4 | 16.1 | 0.00 | 0.36 | 0.00 | 89 | 1018.5 |
| 20260506072032 | 12 | 321 | 9.7 | 17.7 | 0.00 | 0.36 | 0.00 | 89 | 1018.3 |
| 20260506071647 | 12 | 355 | 12.9 | 17.7 | 0.00 | 0.36 | 0.00 | 89 | 1018.3 |
| 20260506071041 | 13 | 336 | 8.0 | 16.1 | 0.00 | 0.36 | 0.00 | 89 | 1018.1 |
| 20260506070542 | 13 | 319 | 8.0 | 14.5 | 0.00 | 0.36 | 0.00 | 89 | 1018.0 |
| 20260506070144 | 13 | 320 | 6.4 | 14.5 | 0.00 | 0.36 | 0.00 | 89 | 1018.1 |
| 20260506062018 | 13 | 301 | 8.0 | 14.5 | 0.00 | 0.48 | 0.23 | 88 | 1017.8 |
| 20260506061630 | 13 | 325 | 6.4 | 14.5 | 0.00 | 0.48 | 0.23 | 88 | 1017.7 |
| 20260506061042 | 13 | 327 | 4.8 | 12.9 | 0.00 | 0.48 | 0.23 | 87 | 1017.7 |
| 20260506060532 | 13 | 310 | 3.2 | 16.1 | 0.00 | 0.48 | 0.23 | 87 | 1017.8 |
| 20260506060122 | 13 | 287 | 9.7 | 16.1 | 0.00 | 0.48 | 0.23 | 87 | 1017.6 |
| 20260506051026 | 13 | 317 | 9.7 | 19.3 | 0.00 | 0.66 | 0.23 | 86 | 1017.5 |
| 20260506050537 | 13 | 317 | 9.7 | 20.9 | 0.00 | 0.66 | 0.23 | 86 | 1017.5 |
| 20260506050117 | 13 | 295 | 8.0 | 20.9 | 0.00 | 0.66 | 0.23 | 86 | 1017.4 |
| 20260506045030 | 13 | 335 | 6.4 | 16.1 | 0.00 | 0.79 | 0.23 | 86 | 1017.2 |
| 20260506044648 | 13 | 316 | 8.0 | 14.5 | 0.00 | 0.79 | 0.23 | 86 | 1017.0 |
| 20260506044021 | 13 | 316 | 9.7 | 20.9 | 0.00 | 0.79 | 0.23 | 86 | 1016.9 |
| 20260506043532 | 13 | 324 | 8.0 | 20.9 | 0.00 | 0.79 | 0.23 | 85 | 1016.8 |
| 20260506043117 | 13 | 299 | 8.0 | 17.7 | 0.00 | 0.79 | 0.23 | 85 | 1016.8 |
| 20260506042535 | 13 | 327 | 8.0 | 17.7 | 0.00 | 0.79 | 0.23 | 85 | 1016.7 |
| 20260506042019 | 13 | 317 | 9.7 | 20.9 | 0.00 | 0.79 | 0.23 | 84 | 1016.9 |
| 20260506041653 | 13 | 336 | 12.9 | 20.9 | 0.00 | 0.79 | 0.23 | 84 | 1016.8 |
| 20260506041015 | 13 | 285 | 12.9 | 19.3 | 0.00 | 0.79 | 0.23 | 84 | 1016.7 |
| 20260506040544 | 13 | 350 | 8.0 | 17.7 | 0.00 | 0.79 | 0.23 | 84 | 1016.8 |
| 20260506040149 | 13 | 323 | 8.0 | 19.3 | 0.00 | 0.79 | 0.23 | 83 | 1016.7 |
| 20260506035532 | 13 | 328 | 8.0 | 19.3 | 0.00 | 0.91 | 0.23 | 83 | 1016.8 |
| 20260506035046 | 13 | 314 | 9.7 | 16.1 | 0.00 | 0.91 | 0.23 | 83 | 1016.7 |
| 20260506034653 | 13 | 299 | 8.0 | 14.5 | 0.00 | 0.91 | 0.23 | 82 | 1016.6 |
| 20260506034046 | 13 | 311 | 8.0 | 12.9 | 0.00 | 0.91 | 0.23 | 82 | 1016.6 |
| 20260506033542 | 13 | 292 | 6.4 | 12.9 | 0.00 | 0.91 | 0.23 | 82 | 1016.4 |
| 20260506033148 | 13 | 324 | 6.4 | 12.9 | 0.00 | 0.91 | 0.23 | 82 | 1016.4 |
| 20260506032525 | 13 | 336 | 4.8 | 16.1 | 0.00 | 0.91 | 0.23 | 81 | 1016.2 |
| 20260506032040 | 13 | 323 | 6.4 | 16.1 | 0.00 | 0.91 | 0.23 | 81 | 1015.9 |
| 20260506031643 | 13 | 327 | 9.7 | 20.9 | 0.00 | 0.91 | 0.23 | 81 | 1015.8 |
| 20260506031030 | 13 | 320 | 11.3 | 20.9 | 0.00 | 0.91 | 0.23 | 81 | 1015.7 |
| 20260506030538 | 14 | 324 | 8.0 | 17.7 | 0.00 | 0.91 | 0.23 | 81 | 1015.7 |
| 20260506030110 | 14 | 345 | 6.4 | 20.9 | 0.00 | 0.91 | 0.23 | 81 | 1015.6 |
| 20260506025536 | 14 | 311 | 9.7 | 20.9 | 0.00 | 0.99 | 0.23 | 81 | 1015.7 |
| 20260506025031 | 14 | 341 | 9.7 | 20.9 | 0.00 | 0.99 | 0.23 | 81 | 1015.6 |
| 20260506024647 | 14 | 303 | 11.3 | 17.7 | 0.00 | 0.99 | 0.23 | 81 | 1015.7 |
| 20260506024027 | 14 | 329 | 6.4 | 19.3 | 0.00 | 0.99 | 0.23 | 80 | 1015.6 |
| 20260506023525 | 14 | 324 | 9.7 | 24.1 | 0.00 | 0.99 | 0.23 | 80 | 1015.5 |
| 20260506023206 | 14 | 317 | 14.5 | 22.5 | 0.00 | 0.99 | 0.23 | 80 | 1015.5 |
| 20260506022520 | 15 | 294 | 8.0 | 20.9 | 0.00 | 0.99 | 0.23 | 80 | 1015.5 |
| 20260506022025 | 15 | 317 | 11.3 | 20.9 | 0.00 | 0.99 | 0.23 | 80 | 1015.4 |
| 20260506021623 | 15 | 322 | 12.9 | 20.9 | 0.00 | 0.99 | 0.23 | 80 | 1015.3 |
| 20260506021041 | 15 | 331 | 8.0 | 20.9 | 0.00 | 0.99 | 0.23 | 80 | 1015.3 |
| 20260506020530 | 15 | 334 | 12.9 | 22.5 | 0.00 | 0.99 | 0.23 | 79 | 1015.2 |
| 20260506020143 | 15 | 321 | 11.3 | 22.5 | 0.00 | 0.99 | 0.23 | 80 | 1015.2 |
| 20260506015536 | 15 | 350 | 6.4 | 20.9 | 0.00 | 1.07 | 0.23 | 80 | 1015.2 |
| 20260506015019 | 15 | 303 | 12.9 | 22.5 | 0.00 | 1.07 | 0.23 | 79 | 1015.1 |
| 20260506014636 | 15 | 324 | 9.7 | 22.5 | 0.00 | 1.07 | 0.23 | 79 | 1015.0 |
| 20260506014028 | 15 | 327 | 9.7 | 20.9 | 0.00 | 1.07 | 0.23 | 79 | 1015.0 |
| 20260506013545 | 15 | 317 | 12.9 | 22.5 | 0.00 | 1.07 | 0.23 | 78 | 1014.9 |
| 20260506013251 | 15 | 301 | 8.0 | 22.5 | 0.00 | 1.07 | 0.23 | 79 | 1014.8 |
| 20260506012536 | 15 | 331 | 8.0 | 20.9 | 0.00 | 1.07 | 0.23 | 78 | 1014.7 |
| 20260506012046 | 16 | 280 | 9.7 | 20.9 | 0.00 | 1.07 | 0.23 | 79 | 1014.9 |
| 20260506011820 | 16 | 311 | 9.7 | 19.3 | 0.00 | 1.07 | 0.23 | 78 | 1014.8 |
| 20260506011029 | 16 | 319 | 9.7 | 22.5 | 0.00 | 1.07 | 0.23 | 78 | 1014.9 |
| 20260506010543 | 16 | 299 | 9.7 | 22.5 | 0.00 | 1.07 | 0.23 | 78 | 1014.9 |
| 20260506010203 | 16 | 313 | 11.3 | 24.1 | 0.00 | 1.07 | 0.23 | 78 | 1014.8 |
| 20260506005546 | 16 | 355 | 11.3 | 24.1 | 0.00 | 1.12 | 0.23 | 78 | 1014.9 |
| 20260506005036 | 16 | 324 | 9.7 | 22.5 | 0.00 | 1.12 | 0.23 | 78 | 1014.8 |
| 20260506004657 | 16 | 317 | 9.7 | 22.5 | 0.00 | 1.12 | 0.23 | 78 | 1014.9 |